ITY9231 LOWI-LIRF

Flight info

Callsign ITY9231
Flight time 1h 8m
Altitude 19000
Route BRENO M726 GAVRA Y345 RITEB
Aircraft A20N/M-SDE2E3FGHIRWXY/LB1

Departure

Time 2026-05-06 21:21
Airport Innsbruck Airport (LOWI)

Arrival

Time 2026-05-06 22:30
Airport Rome–Fiumicino Leonardo da Vinci International Airport (LIRF)
Time Latitude Longitude Altitude Speed Heading
2026-05-06 20:35 47.25824 11.35057 1913 ft 0 kts 171°
2026-05-06 21:04 47.25837 11.35051 1911 ft 2 kts 171°
2026-05-06 21:05 47.25852 11.35049 1911 ft 2 kts 173°
2026-05-06 21:05 47.25864 11.35047 1911 ft 0 kts 172°
2026-05-06 21:05 47.25874 11.35044 1911 ft 1 kts 142°
2026-05-06 21:05 47.25879 11.35032 1911 ft 0 kts 88°
2026-05-06 21:06 47.25877 11.35022 1911 ft 0 kts 74°
2026-05-06 21:06 47.25876 11.35016 1911 ft 0 kts 81°
2026-05-06 21:11 47.25877 11.35024 1911 ft 1 kts 81°
2026-05-06 21:11 47.25879 11.35052 1910 ft 4 kts 84°
2026-05-06 21:12 47.25885 11.35121 1910 ft 8 kts 82°
2026-05-06 21:12 47.25894 11.35215 1910 ft 10 kts 81°
2026-05-06 21:12 47.25908 11.35274 1909 ft 3 kts 41°
2026-05-06 21:12 47.25930 11.35283 1909 ft 0 kts
2026-05-06 21:13 47.25931 11.35283 1909 ft 0 kts
2026-05-06 21:13 47.25943 11.35284 1909 ft 3 kts
2026-05-06 21:13 47.25965 11.35281 1909 ft 2 kts 351°
2026-05-06 21:13 47.25983 11.35277 1909 ft 0 kts 351°
2026-05-06 21:18 47.25997 11.35274 1909 ft 5 kts 351°
2026-05-06 21:18 47.26054 11.35259 1909 ft 10 kts 349°
2026-05-06 21:18 47.26115 11.35298 1909 ft 11 kts 75°
2026-05-06 21:19 47.26130 11.35424 1908 ft 13 kts 81°
2026-05-06 21:19 47.26141 11.35561 1908 ft 11 kts 101°
2026-05-06 21:19 47.26109 11.35646 1907 ft 8 kts 93°
2026-05-06 21:19 47.26149 11.35677 1907 ft 6 kts 319°
2026-05-06 21:20 47.26152 11.35631 1907 ft 4 kts 262°
2026-05-06 21:20 47.26150 11.35606 1907 ft 3 kts 262°
2026-05-06 21:20 47.26146 11.35561 1908 ft 3 kts 262°
2026-05-06 21:20 47.26142 11.35521 1908 ft 4 kts 261°
2026-05-06 21:21 47.26134 11.35446 1908 ft 21 kts 262°
2026-05-06 21:21 47.26065 11.34812 1912 ft 100 kts 260°
2026-05-06 21:21 47.25921 11.33486 1950 ft 157 kts 259°
2026-05-06 21:21 47.25739 11.31897 2521 ft 163 kts 261°
2026-05-06 21:22 47.25599 11.30236 3195 ft 167 kts 261°
2026-05-06 21:22 47.25442 11.28535 3885 ft 170 kts 259°
2026-05-06 21:22 47.25327 11.26761 4411 ft 182 kts 272°
2026-05-06 21:22 47.25671 11.24922 4886 ft 197 kts 292°
2026-05-06 21:23 47.26253 11.23050 5431 ft 209 kts 294°
2026-05-06 21:23 47.26868 11.21020 5941 ft 223 kts 293°
2026-05-06 21:23 47.27535 11.18922 6477 ft 235 kts 296°
2026-05-06 21:23 47.28268 11.16681 7049 ft 249 kts 292°
2026-05-06 21:24 47.28945 11.14355 7932 ft 250 kts 289°
2026-05-06 21:24 47.29572 11.12026 8891 ft 245 kts 290°
2026-05-06 21:24 47.30209 11.09773 9722 ft 244 kts 284°
2026-05-06 21:24 47.30517 11.07293 10316 ft 251 kts 266°
2026-05-06 21:25 47.30428 11.04689 10851 ft 262 kts 264°
2026-05-06 21:25 47.30336 11.01948 11370 ft 277 kts 264°
2026-05-06 21:25 47.30211 10.99029 11822 ft 295 kts 264°
2026-05-06 21:25 47.30086 10.95946 12255 ft 312 kts 265°
2026-05-06 21:26 47.29962 10.92703 12668 ft 329 kts 265°
2026-05-06 21:26 47.29828 10.89289 13265 ft 339 kts 264°
2026-05-06 21:26 47.29270 10.85975 14024 ft 337 kts 241°
2026-05-06 21:26 47.27782 10.83421 14802 ft 334 kts 213°
2026-05-06 21:27 47.25686 10.82031 15641 ft 332 kts 193°
2026-05-06 21:27 47.23385 10.81808 16365 ft 337 kts 174°
2026-05-06 21:27 47.21143 10.82788 17053 ft 345 kts 155°
2026-05-06 21:27 47.19217 10.84985 17628 ft 359 kts 133°
2026-05-06 21:28 47.17878 10.88053 18322 ft 365 kts 123°
2026-05-06 21:28 47.16622 10.91315 18801 ft 366 kts 123°
2026-05-06 21:28 47.15361 10.94532 18978 ft 368 kts 124°
2026-05-06 21:28 47.14079 10.97764 18978 ft 366 kts 125°
2026-05-06 21:29 47.12779 11.01010 18960 ft 366 kts 125°
2026-05-06 21:29 47.11494 11.04201 18963 ft 365 kts 125°
2026-05-06 21:29 47.10196 11.07418 18964 ft 366 kts 125°
2026-05-06 21:29 47.08909 11.10615 18966 ft 366 kts 125°
2026-05-06 21:30 47.07621 11.13828 18956 ft 366 kts 126°
2026-05-06 21:30 47.06344 11.17000 18967 ft 367 kts 126°
2026-05-06 21:30 47.05038 11.20228 18969 ft 367 kts 126°
2026-05-06 21:30 47.03737 11.23449 18965 ft 368 kts 126°
2026-05-06 21:31 47.02434 11.26666 18957 ft 367 kts 126°
2026-05-06 21:31 47.01133 11.29880 18949 ft 367 kts 126°
2026-05-06 21:31 46.99812 11.33041 18943 ft 364 kts 131°
2026-05-06 21:31 46.98049 11.35548 18935 ft 352 kts 152°
2026-05-06 21:32 46.95834 11.36944 18951 ft 344 kts 171°
2026-05-06 21:32 46.91138 11.36909 18956 ft 339 kts 187°
2026-05-06 21:32 46.88781 11.36635 18956 ft 339 kts 186°
2026-05-06 21:33 46.86435 11.36367 19077 ft 344 kts 186°
2026-05-06 21:33 46.84040 11.36104 19742 ft 345 kts 186°
2026-05-06 21:33 46.81668 11.35848 20483 ft 345 kts 187°
2026-05-06 21:33 46.79309 11.35596 21105 ft 344 kts 187°
2026-05-06 21:34 46.76904 11.35343 21658 ft 349 kts 187°
2026-05-06 21:34 46.74455 11.35093 22306 ft 352 kts 187°
2026-05-06 21:34 46.72043 11.34846 22956 ft 353 kts 187°
2026-05-06 21:34 46.69576 11.34591 23588 ft 354 kts 188°
2026-05-06 21:35 46.67118 11.34337 24182 ft 357 kts 188°
2026-05-06 21:35 46.64656 11.34079 24771 ft 360 kts 188°
2026-05-06 21:35 46.62156 11.33820 25361 ft 362 kts 188°
2026-05-06 21:35 46.59669 11.33562 25907 ft 364 kts 188°
2026-05-06 21:36 46.57128 11.33302 26440 ft 366 kts 188°
2026-05-06 21:36 46.54586 11.33041 26952 ft 369 kts 188°
2026-05-06 21:36 46.52021 11.32776 27473 ft 370 kts 188°
2026-05-06 21:36 46.49459 11.32561 27932 ft 374 kts 187°
2026-05-06 21:37 46.46835 11.32532 28381 ft 378 kts 184°
2026-05-06 21:37 46.44226 11.32709 28798 ft 382 kts 181°
2026-05-06 21:37 46.41559 11.33096 29199 ft 386 kts 179°
2026-05-06 21:37 46.38914 11.33584 29609 ft 387 kts 179°
2026-05-06 21:38 46.36265 11.34061 30141 ft 385 kts 179°
2026-05-06 21:38 46.33620 11.34543 30700 ft 381 kts 179°
2026-05-06 21:38 46.31009 11.35020 31142 ft 380 kts 179°
2026-05-06 21:38 46.28384 11.35493 31512 ft 381 kts 179°
2026-05-06 21:39 46.25777 11.35966 31906 ft 380 kts 179°
2026-05-06 21:39 46.23147 11.36443 32327 ft 379 kts 179°
2026-05-06 21:39 46.20557 11.36914 32738 ft 378 kts 179°
2026-05-06 21:39 46.17952 11.37384 32945 ft 379 kts 179°
2026-05-06 21:40 46.12711 11.38335 32949 ft 378 kts 179°
2026-05-06 21:40 46.07520 11.39281 32955 ft 378 kts 180°
2026-05-06 21:41 46.02301 11.40220 32949 ft 378 kts 179°
2026-05-06 21:41 45.97105 11.41155 32949 ft 377 kts 179°
2026-05-06 21:42 45.91916 11.42094 32954 ft 377 kts 179°
2026-05-06 21:42 45.86690 11.43035 32944 ft 378 kts 179°
2026-05-06 21:43 45.81482 11.43974 32937 ft 379 kts 179°
2026-05-06 21:43 45.76244 11.44916 32932 ft 378 kts 179°
2026-05-06 21:44 45.71048 11.45851 32931 ft 379 kts 179°
2026-05-06 21:44 45.65815 11.46788 32937 ft 381 kts 179°
2026-05-06 21:45 45.60564 11.47722 32932 ft 381 kts 179°
2026-05-06 21:45 45.55298 11.48653 32930 ft 382 kts 179°
2026-05-06 21:46 45.50068 11.49582 32928 ft 381 kts 179°
2026-05-06 21:46 45.44806 11.50512 32919 ft 382 kts 179°
2026-05-06 21:47 45.39545 11.51438 32917 ft 382 kts 179°
2026-05-06 21:47 45.34243 11.52370 32916 ft 383 kts 179°
2026-05-06 21:48 45.29007 11.53291 32911 ft 383 kts 179°
2026-05-06 21:48 45.23726 11.54219 32908 ft 384 kts 179°
2026-05-06 21:49 45.18398 11.55157 32908 ft 384 kts 179°
2026-05-06 21:49 45.13139 11.56083 32907 ft 385 kts 179°
2026-05-06 21:50 45.07812 11.57019 32904 ft 387 kts 179°
2026-05-06 21:50 45.02463 11.57954 32906 ft 387 kts 179°
2026-05-06 21:51 44.97116 11.58889 32906 ft 388 kts 179°
2026-05-06 21:51 44.91779 11.59819 32906 ft 388 kts 179°
2026-05-06 21:52 44.86435 11.60749 32909 ft 389 kts 179°
2026-05-06 21:52 44.81086 11.61676 32910 ft 389 kts 179°
2026-05-06 21:53 44.75722 11.62755 32912 ft 390 kts 178°
2026-05-06 21:53 44.70354 11.63866 32917 ft 391 kts 178°
2026-05-06 21:54 44.65016 11.64959 32918 ft 391 kts 178°
2026-05-06 21:54 44.59595 11.66065 32919 ft 391 kts 178°
2026-05-06 21:55 44.54229 11.67155 32922 ft 391 kts 178°
2026-05-06 21:55 44.48878 11.68235 32928 ft 391 kts 178°
2026-05-06 21:56 44.43476 11.69329 32927 ft 392 kts 178°
2026-05-06 21:56 44.38090 11.70419 32929 ft 392 kts 178°
2026-05-06 21:57 44.32714 11.71503 32933 ft 392 kts 178°
2026-05-06 21:57 44.27329 11.72592 32938 ft 392 kts 178°
2026-05-06 21:58 44.21941 11.73677 32939 ft 393 kts 178°
2026-05-06 21:58 44.16539 11.74751 32944 ft 392 kts 178°
2026-05-06 21:59 44.11109 11.75829 32947 ft 395 kts 178°
2026-05-06 21:59 44.05676 11.76907 32945 ft 395 kts 178°
2026-05-06 22:00 44.00248 11.77986 32950 ft 395 kts 178°
2026-05-06 22:00 43.94812 11.79064 32958 ft 396 kts 178°
2026-05-06 22:01 43.89389 11.80135 32953 ft 396 kts 178°
2026-05-06 22:01 43.83945 11.81206 32955 ft 397 kts 178°
2026-05-06 22:02 43.78499 11.82305 32954 ft 398 kts 176°
2026-05-06 22:02 43.73070 11.83909 32959 ft 401 kts 173°
2026-05-06 22:03 43.67641 11.85634 32955 ft 401 kts 173°
2026-05-06 22:03 43.62214 11.87362 32960 ft 401 kts 173°
2026-05-06 22:04 43.56794 11.89087 32959 ft 402 kts 173°
2026-05-06 22:04 43.54073 11.89949 32788 ft 404 kts 173°
2026-05-06 22:04 43.51300 11.90827 31982 ft 411 kts 173°
2026-05-06 22:05 43.48498 11.91711 31055 ft 416 kts 173°
2026-05-06 22:05 43.45691 11.92598 30239 ft 417 kts 172°
2026-05-06 22:05 43.42878 11.93488 29474 ft 417 kts 172°
2026-05-06 22:05 43.40061 11.94380 28754 ft 417 kts 172°
2026-05-06 22:06 43.37251 11.95270 28030 ft 415 kts 172°
2026-05-06 22:06 43.34465 11.96153 27550 ft 408 kts 172°
2026-05-06 22:06 43.31726 11.97021 27085 ft 402 kts 172°
2026-05-06 22:06 43.29022 11.97876 26616 ft 396 kts 171°
2026-05-06 22:07 43.26358 11.98714 26151 ft 391 kts 171°
2026-05-06 22:07 43.23753 11.99535 25698 ft 386 kts 172°
2026-05-06 22:07 43.21147 12.00353 25238 ft 382 kts 171°
2026-05-06 22:07 43.18566 12.01161 24779 ft 378 kts 171°
2026-05-06 22:08 43.16027 12.01957 24320 ft 374 kts 171°
2026-05-06 22:08 43.13504 12.02749 23859 ft 371 kts 171°
2026-05-06 22:08 43.10999 12.03535 23397 ft 368 kts 170°
2026-05-06 22:08 43.08552 12.04303 22954 ft 364 kts 170°
2026-05-06 22:09 43.06090 12.05075 22498 ft 362 kts 170°
2026-05-06 22:09 43.03629 12.05846 22036 ft 360 kts 170°
2026-05-06 22:09 43.01220 12.06598 21584 ft 357 kts 170°
2026-05-06 22:09 42.98812 12.07348 21129 ft 355 kts 170°
2026-05-06 22:10 42.96388 12.08104 20670 ft 354 kts 170°
2026-05-06 22:10 42.94018 12.08842 20208 ft 352 kts 170°
2026-05-06 22:10 42.91634 12.09585 19750 ft 350 kts 170°
2026-05-06 22:10 42.89303 12.10310 19303 ft 347 kts 170°
2026-05-06 22:11 42.86957 12.11044 18853 ft 343 kts 170°
2026-05-06 22:11 42.84620 12.11770 18410 ft 342 kts 170°
2026-05-06 22:11 42.82306 12.12487 17955 ft 340 kts 170°
2026-05-06 22:11 42.80038 12.13190 17520 ft 338 kts 170°
2026-05-06 22:12 42.77741 12.13899 17082 ft 334 kts 170°
2026-05-06 22:12 42.75529 12.14587 16928 ft 320 kts 170°
2026-05-06 22:12 42.73398 12.15249 16782 ft 308 kts 170°
2026-05-06 22:12 42.71376 12.15914 16630 ft 297 kts 166°
2026-05-06 22:13 42.69434 12.16862 16481 ft 293 kts 159°
2026-05-06 22:13 42.67633 12.18098 16110 ft 295 kts 154°
2026-05-06 22:13 42.65855 12.19508 15739 ft 294 kts 153°
2026-05-06 22:13 42.64088 12.20931 15372 ft 294 kts 152°
2026-05-06 22:14 42.62339 12.22340 15026 ft 292 kts 152°
2026-05-06 22:14 42.60609 12.23729 14681 ft 290 kts 152°
2026-05-06 22:14 42.58872 12.25121 14330 ft 288 kts 152°
2026-05-06 22:14 42.57173 12.26479 14007 ft 286 kts 152°
2026-05-06 22:15 42.55460 12.27847 13666 ft 284 kts 152°
2026-05-06 22:15 42.53759 12.29205 13340 ft 283 kts 152°
2026-05-06 22:15 42.52072 12.30551 12988 ft 282 kts 152°
2026-05-06 22:15 42.50396 12.31887 12666 ft 281 kts 152°
2026-05-06 22:16 42.48703 12.33231 12313 ft 280 kts 152°
2026-05-06 22:16 42.47044 12.34554 11971 ft 279 kts 152°
2026-05-06 22:16 42.45372 12.35890 11614 ft 278 kts 152°
2026-05-06 22:16 42.43727 12.37203 11290 ft 277 kts 151°
2026-05-06 22:17 42.42049 12.38530 11028 ft 282 kts 152°
2026-05-06 22:17 42.40337 12.39891 11000 ft 285 kts 152°
2026-05-06 22:17 42.38662 12.41220 10898 ft 280 kts 152°
2026-05-06 22:17 42.36977 12.42531 10532 ft 278 kts 154°
2026-05-06 22:18 42.35233 12.43584 10349 ft 267 kts 161°
2026-05-06 22:18 42.33508 12.44360 10153 ft 258 kts 164°
2026-05-06 22:18 42.31820 12.45069 9905 ft 253 kts 164°
2026-05-06 22:18 42.30144 12.45772 9557 ft 251 kts 165°
2026-05-06 22:19 42.28478 12.46470 9183 ft 249 kts 164°
2026-05-06 22:19 42.26843 12.47153 8787 ft 248 kts 164°
2026-05-06 22:19 42.25194 12.47845 8410 ft 247 kts 164°
2026-05-06 22:19 42.23523 12.48160 8150 ft 239 kts 190°
2026-05-06 22:20 42.22035 12.47280 7891 ft 233 kts 218°
2026-05-06 22:20 42.21087 12.45542 7528 ft 236 kts 247°
2026-05-06 22:20 42.20603 12.43428 7162 ft 235 kts 251°
2026-05-06 22:20 42.20137 12.41322 6752 ft 236 kts 250°
2026-05-06 22:21 42.19660 12.39241 6427 ft 233 kts 250°
2026-05-06 22:21 42.19220 12.37148 6096 ft 233 kts 256°
2026-05-06 22:21 42.18796 12.35069 6007 ft 231 kts 249°
2026-05-06 22:21 42.18286 12.33008 5897 ft 231 kts 250°
2026-05-06 22:22 42.17773 12.30958 5693 ft 229 kts 248°
2026-05-06 22:22 42.17290 12.28946 5434 ft 227 kts 250°
2026-05-06 22:22 42.16813 12.26929 5175 ft 224 kts 249°
2026-05-06 22:22 42.16342 12.24935 4915 ft 222 kts 249°
2026-05-06 22:23 42.15883 12.22987 4653 ft 220 kts 250°
2026-05-06 22:23 42.15427 12.21049 4573 ft 217 kts 249°
2026-05-06 22:23 42.14702 12.19296 4439 ft 214 kts 218°
2026-05-06 22:23 42.13364 12.18548 4186 ft 211 kts 187°
2026-05-06 22:24 42.11926 12.18266 4050 ft 209 kts 190°
2026-05-06 22:24 42.10497 12.17868 4045 ft 209 kts 191°
2026-05-06 22:24 42.09074 12.17443 3799 ft 208 kts 191°
2026-05-06 22:24 42.07636 12.17197 3451 ft 209 kts 182°
2026-05-06 22:25 42.06200 12.17283 3168 ft 209 kts 171°
2026-05-06 22:25 42.04778 12.17693 3052 ft 207 kts 163°
2026-05-06 22:25 42.03405 12.18248 2980 ft 207 kts 162°
2026-05-06 22:25 42.02039 12.18837 2979 ft 207 kts 161°
2026-05-06 22:26 42.00664 12.19427 2974 ft 204 kts 162°
2026-05-06 22:26 41.99326 12.19992 2933 ft 197 kts 161°
2026-05-06 22:26 41.98024 12.20539 2727 ft 194 kts 162°
2026-05-06 22:26 41.96748 12.21072 2471 ft 193 kts 162°
2026-05-06 22:27 41.95470 12.21604 2213 ft 191 kts 161°
2026-05-06 22:27 41.94208 12.22130 1962 ft 189 kts 161°
2026-05-06 22:27 41.92961 12.22651 1709 ft 189 kts 161°
2026-05-06 22:27 41.91710 12.23172 1458 ft 186 kts 161°
2026-05-06 22:28 41.90485 12.23685 1216 ft 185 kts 161°
2026-05-06 22:28 41.89275 12.24192 1046 ft 176 kts 161°
2026-05-06 22:28 41.88140 12.24665 800 ft 163 kts 160°
2026-05-06 22:28 41.87106 12.25098 556 ft 152 kts 160°
2026-05-06 22:29 41.86120 12.25511 339 ft 141 kts 160°
2026-05-06 22:29 41.85211 12.25889 157 ft 135 kts 161°
2026-05-06 22:29 41.84316 12.26267 20 ft 135 kts 161°
2026-05-06 22:29 41.83481 12.26619 9 ft 109 kts 162°
2026-05-06 22:30 41.82917 12.26855 7 ft 59 kts 162°
2026-05-06 22:30 41.82677 12.26955 7 ft 21 kts 162°
2026-05-06 22:30 41.82521 12.27021 6 ft 25 kts 162°
2026-05-06 22:30 41.82339 12.27095 6 ft 29 kts 162°
2026-05-06 22:31 41.82146 12.27140 6 ft 24 kts 176°
2026-05-06 22:31 41.81988 12.27119 6 ft 22 kts 191°
2026-05-06 22:31 41.81838 12.27075 7 ft 21 kts 192°
2026-05-06 22:31 41.81692 12.27048 7 ft 21 kts 175°
2026-05-06 22:32 41.81553 12.27102 8 ft 20 kts 162°
2026-05-06 22:32 41.81421 12.27158 8 ft 19 kts 162°
2026-05-06 22:32 41.81294 12.27215 9 ft 19 kts 160°
2026-05-06 22:32 41.81169 12.27273 9 ft 18 kts 163°
2026-05-06 22:33 41.81043 12.27316 9 ft 18 kts 164°
2026-05-06 22:33 41.80917 12.27351 9 ft 18 kts 180°
2026-05-06 22:33 41.80788 12.27326 10 ft 18 kts 190°
2026-05-06 22:33 41.80672 12.27264 10 ft 15 kts 226°
2026-05-06 22:34 41.80627 12.27132 10 ft 15 kts 250°
2026-05-06 22:34 41.80591 12.26993 11 ft 16 kts 250°
2026-05-06 22:34 41.80552 12.26852 11 ft 16 kts 251°
2026-05-06 22:34 41.80514 12.26712 12 ft 16 kts 248°
2026-05-06 22:35 41.80473 12.26569 13 ft 16 kts 250°
2026-05-06 22:35 41.80436 12.26432 14 ft 11 kts 248°
2026-05-06 22:35 41.80379 12.26370 15 ft 11 kts 187°
2026-05-06 22:35 41.80298 12.26396 15 ft 12 kts 162°
2026-05-06 22:36 41.80210 12.26404 15 ft 13 kts 200°
2026-05-06 22:36 41.80123 12.26351 15 ft 13 kts 204°
2026-05-06 22:36 41.80035 12.26296 16 ft 14 kts 205°
2026-05-06 22:36 41.79945 12.26242 17 ft 14 kts 205°
2026-05-06 22:37 41.79855 12.26185 18 ft 14 kts 204°
2026-05-06 22:37 41.79774 12.26129 19 ft 11 kts 231°
2026-05-06 22:37 41.79778 12.26028 19 ft 12 kts 295°
2026-05-06 22:37 41.79816 12.25921 19 ft 13 kts 294°
2026-05-06 22:38 41.79855 12.25804 19 ft 14 kts 295°
2026-05-06 22:38 41.79901 12.25679 18 ft 15 kts 296°
2026-05-06 22:38 41.79937 12.25571 17 ft 8 kts 281°
2026-05-06 22:38 41.79899 12.25514 17 ft 9 kts 207°
2026-05-06 22:39 41.79838 12.25476 18 ft 10 kts 202°
2026-05-06 22:39 41.79770 12.25439 18 ft 10 kts 203°
2026-05-06 22:39 41.79749 12.25428 18 ft 2 kts 191°
2026-05-06 22:39 41.79733 12.25444 18 ft 3 kts 115°
2026-05-06 22:40 41.79726 12.25464 18 ft 1 kts 115°
2026-05-06 22:40 41.79722 12.25477 18 ft 0 kts 115°